Location: Unspecified
(46.0725°N, 13.7344°E)
Time: 09:49:31
(UTC+02:00)

Cosmos 2058 - Pass Details

Date: 22 June 2024
Orbit: 545 x 564 km, 82.5° (Epoch: 17 July)

Event Time Altitude Azimuth Distance (km) Brightness Sun altitude
Exits shadow 04:32:29 - 238° (WSW) 2,045 5.1 -6.4°
Reaches altitude 10° 04:33:08 10° 244° (WSW) 1,848 4.9 -6.3°
Maximum altitude 04:36:05 19° 291° (WNW) 1,370 4.6 -5.9°
Drops below altitude 10° 04:39:03 10° 337° (NNW) 1,866 5.8 -5.6°
Sets 04:41:47 0° 356° (N) 2,771 7.0 -5.2°
